When you browse on this site, cookies collect data to enhance your experience and personalize the content and advertising you see.
Visit our Privacy Policy to learn more. By continuing to use the site, you agree to this use of cookies and data.
  • In Romania
  • List of Countries
  • For 7 days
  • Water Temperature
  • Satellite Maps
  • Weather Map
  • Weather Widgets
  • user-avatar
    Login

    Hourly Weather Estelí

    Today, 25 May, Saturday

    Time Temperature Precipitation Wind Pressure Humidity
    00:00 +22°C° 0.3 mm 1 mps 685 mmHg 95%
    01:00 +22°C° 0.1 mm 1 mps 685 mmHg 95%
    02:00 +22°C° 0.1 mm 1 mps 685 mmHg 95%
    03:00 +22°C° 0.1 mm 1 mps 685 mmHg 95%
    04:00 +22°C° 0.1 mm 1 mps 685 mmHg 95%
    05:00 +22°C° 0.1 mm 1 mps 685 mmHg 94%
    06:00 +22°C° 0.1 mm 1 mps 685 mmHg 94%
    07:00 +21°C° 0.1 mm 2 mps 685 mmHg 91%
    08:00 +23°C° 0.1 mm 2 mps 686 mmHg 89%
    09:00 +24°C° 0.1 mm 2 mps 686 mmHg 86%
    10:00 +24°C° 0.1 mm 2 mps 686 mmHg 83%
    11:00 +25°C° 0.1 mm 2 mps 686 mmHg 80%
    12:00 +26°C° 0.1 mm 3 mps 685 mmHg 77%
    13:00 +26°C° 0 mm 2 mps 685 mmHg 76%
    14:00 +26°C° 0 mm 2 mps 685 mmHg 75%
    15:00 +26°C° 0 mm 2 mps 684 mmHg 74%
    16:00 +25°C° 0 mm 2 mps 684 mmHg 77%
    17:00 +25°C° 0 mm 2 mps 684 mmHg 81%
    18:00 +24°C° 0 mm 1 mps 685 mmHg 84%
    19:00 +23°C° 0 mm 1 mps 685 mmHg 86%
    20:00 +23°C° 0 mm 2 mps 685 mmHg 88%
    21:00 +21°C° 0 mm 2 mps 686 mmHg 90%
    22:00 +21°C° 0 mm 2 mps 686 mmHg 90%
    23:00 +21°C° 0 mm 2 mps 686 mmHg 90%

    Tomorrow, 26 May, Sunday

    Time Temperature Precipitation Wind Pressure Humidity
    00:00 +21°C° 0 mm 2 mps 686 mmHg 90%
    01:00 +21°C° 0 mm 2 mps 685 mmHg 91%
    02:00 +21°C° 0 mm 2 mps 685 mmHg 91%
    03:00 +21°C° 0 mm 2 mps 685 mmHg 92%
    04:00 +21°C° 0 mm 2 mps 685 mmHg 92%
    05:00 +21°C° 0 mm 2 mps 685 mmHg 92%
    06:00 +21°C° 0 mm 2 mps 685 mmHg 92%
    07:00 +23°C° 0 mm 2 mps 686 mmHg 87%
    08:00 +24°C° 0 mm 2 mps 686 mmHg 82%
    09:00 +25°C° 0 mm 2 mps 687 mmHg 77%
    10:00 +26°C° 0.2 mm 2 mps 687 mmHg 74%
    11:00 +27°C° 0.2 mm 2 mps 687 mmHg 70%
    12:00 +27°C° 0.2 mm 2 mps 686 mmHg 67%
    13:00 +27°C° 1.3 mm 2 mps 686 mmHg 69%
    14:00 +27°C° 1.3 mm 1 mps 685 mmHg 72%
    15:00 +26°C° 1.3 mm 1 mps 685 mmHg 74%
    16:00 +26°C° 1.9 mm 1 mps 685 mmHg 79%
    17:00 +25°C° 1.9 mm 1 mps 685 mmHg 84%
    18:00 +24°C° 1.9 mm 1 mps 685 mmHg 90%
    19:00 +23°C° 1.4 mm 1 mps 685 mmHg 90%
    20:00 +23°C° 1.4 mm 1 mps 686 mmHg 90%
    21:00 +23°C° 1.4 mm 1 mps 686 mmHg 91%
    22:00 +22°C° 0.2 mm 1 mps 686 mmHg 92%
    23:00 +22°C° 0.2 mm 1 mps 686 mmHg 92%

    Day after tomorrow, 27 May, Monday

    Time Temperature Precipitation Wind Pressure Humidity
    00:00 +22°C° 0.2 mm 1 mps 686 mmHg 93%
    01:00 +22°C° 0 mm 1 mps 685 mmHg 94%
    02:00 +21°C° 0 mm 1 mps 685 mmHg 94%
    03:00 +21°C° 0 mm 1 mps 684 mmHg 95%
    04:00 +21°C° 0 mm 1 mps 684 mmHg 94%
    05:00 +21°C° 0 mm 1 mps 684 mmHg 94%
    06:00 +21°C° 0 mm 1 mps 684 mmHg 93%
    07:00 +23°C° 0 mm 1 mps 685 mmHg 88%
    08:00 +24°C° 0 mm 1 mps 686 mmHg 83%
    09:00 +25°C° 0 mm 1 mps 686 mmHg 78%
    10:00 +26°C° 0.1 mm 1 mps 686 mmHg 74%
    11:00 +27°C° 0.1 mm 1 mps 686 mmHg 70%
    12:00 +28°C° 0.1 mm 1 mps 686 mmHg 65%
    13:00 +28°C° 0.9 mm 1 mps 685 mmHg 65%
    14:00 +29°C° 0.9 mm 1 mps 685 mmHg 64%
    15:00 +27°C° 0.9 mm 0 mps 684 mmHg 64%
    16:00 +25°C° 1.8 mm 0 mps 684 mmHg 70%
    17:00 +24°C° 1.8 mm 0 mps 684 mmHg 76%
    18:00 +23°C° 1.8 mm 0 mps 684 mmHg 83%
    19:00 +22°C° 1.8 mm 0 mps 684 mmHg 85%
    20:00 +22°C° 1.8 mm 0 mps 685 mmHg 88%
    21:00 +21°C° 1.8 mm 0 mps 685 mmHg 90%
    22:00 +21°C° 0.2 mm 0 mps 685 mmHg 91%
    23:00 +21°C° 0.2 mm 0 mps 685 mmHg 91%

    28 May, Tuesday

    Time Temperature Precipitation Wind Pressure Humidity
    00:00 +20°C° 0.2 mm 0 mps 685 mmHg 92%
    01:00 +20°C° 0.1 mm 0 mps 684 mmHg 92%
    02:00 +20°C° 0.1 mm 0 mps 684 mmHg 92%
    03:00 +20°C° 0.1 mm 0 mps 683 mmHg 93%
    04:00 +20°C° 0 mm 0 mps 683 mmHg 92%
    05:00 +20°C° 0 mm 0 mps 684 mmHg 92%
    06:00 +20°C° 0 mm 0 mps 684 mmHg 92%
    07:00 +22°C° 0 mm 0 mps 684 mmHg 86%
    08:00 +23°C° 0 mm 0 mps 685 mmHg 81%
    09:00 +27°C° 0 mm 1 mps 685 mmHg 75%
    10:00 +27°C° 0.5 mm 1 mps 685 mmHg 73%
    11:00 +28°C° 0.5 mm 1 mps 685 mmHg 70%
    12:00 +29°C° 0.5 mm 1 mps 684 mmHg 67%
    13:00 +28°C° 1.9 mm 1 mps 683 mmHg 72%
    14:00 +27°C° 1.9 mm 1 mps 683 mmHg 77%
    15:00 +26°C° 1.9 mm 1 mps 682 mmHg 82%
    16:00 +25°C° 2.7 mm 1 mps 682 mmHg 85%
    17:00 +25°C° 2.7 mm 1 mps 683 mmHg 88%
    18:00 +24°C° 2.7 mm 1 mps 683 mmHg 91%
    19:00 +24°C° 2.9 mm 1 mps 683 mmHg 92%
    20:00 +23°C° 2.9 mm 1 mps 684 mmHg 92%
    21:00 +23°C° 2.9 mm 1 mps 684 mmHg 92%
    22:00 +23°C° 2.3 mm 1 mps 684 mmHg 92%
    23:00 +21°C° 2.3 mm 0 mps 684 mmHg 93%

    29 May, Wednesday

    Time Temperature Precipitation Wind Pressure Humidity
    00:00 +21°C° 2.3 mm 0 mps 684 mmHg 93%
    01:00 +21°C° 0.2 mm 0 mps 684 mmHg 94%
    02:00 +20°C° 0.2 mm 0 mps 683 mmHg 94%
    03:00 +20°C° 0.2 mm 0 mps 683 mmHg 95%
    04:00 +20°C° 0 mm 0 mps 683 mmHg 95%
    05:00 +20°C° 0 mm 0 mps 683 mmHg 95%
    06:00 +20°C° 0 mm 0 mps 684 mmHg 95%
    07:00 +23°C° 0 mm 1 mps 684 mmHg 90%
    08:00 +24°C° 0 mm 1 mps 685 mmHg 85%
    09:00 +25°C° 0 mm 1 mps 685 mmHg 80%
    10:00 +26°C° 0.4 mm 2 mps 685 mmHg 77%
    11:00 +27°C° 0.4 mm 2 mps 685 mmHg 75%
    12:00 +28°C° 0.4 mm 3 mps 684 mmHg 72%
    13:00 +27°C° 1.4 mm 3 mps 684 mmHg 75%
    14:00 +27°C° 1.4 mm 3 mps 683 mmHg 78%
    15:00 +26°C° 1.4 mm 3 mps 683 mmHg 81%
    16:00 +25°C° 0.6 mm 2 mps 683 mmHg 84%
    17:00 +25°C° 0.6 mm 2 mps 683 mmHg 88%
    18:00 +24°C° 0.6 mm 1 mps 684 mmHg 91%
    19:00 +23°C° 0.3 mm 1 mps 684 mmHg 93%
    20:00 +23°C° 0.3 mm 1 mps 685 mmHg 94%
    21:00 +23°C° 0.3 mm 1 mps 685 mmHg 95%
    22:00 +23°C° 0.4 mm 1 mps 685 mmHg 95%
    23:00 +22°C° 0.4 mm 1 mps 685 mmHg 96%

    30 May, Thursday

    Time Temperature Precipitation Wind Pressure Humidity
    00:00 +22°C° 0.4 mm 1 mps 684 mmHg 96%
    01:00 +22°C° 0.5 mm 1 mps 684 mmHg 96%
    02:00 +22°C° 0.5 mm 1 mps 684 mmHg 97%
    03:00 +22°C° 0.5 mm 1 mps 684 mmHg 97%
    04:00 +22°C° 0.7 mm 1 mps 684 mmHg 97%
    05:00 +22°C° 0.7 mm 1 mps 684 mmHg 97%
    06:00 +22°C° 0.7 mm 1 mps 685 mmHg 97%
    07:00 +22°C° 0.5 mm 1 mps 685 mmHg 95%
    08:00 +22°C° 0.5 mm 1 mps 685 mmHg 93%
    09:00 +23°C° 0.5 mm 2 mps 686 mmHg 92%
    10:00 +23°C° 0.5 mm 2 mps 685 mmHg 90%
    11:00 +24°C° 0.5 mm 2 mps 685 mmHg 88%
    12:00 +24°C° 0.5 mm 2 mps 685 mmHg 87%
    13:00 +24°C° 0.6 mm 2 mps 684 mmHg 88%
    14:00 +24°C° 0.6 mm 2 mps 683 mmHg 90%
    15:00 +24°C° 0.6 mm 2 mps 683 mmHg 91%
    16:00 +22°C° 3.8 mm 3 mps 683 mmHg 93%
    17:00 +22°C° 3.8 mm 3 mps 683 mmHg 95%
    18:00 +21°C° 3.8 mm 3 mps 683 mmHg 97%
    19:00 +21°C° 10.4 mm 4 mps 684 mmHg 97%
    20:00 +21°C° 10.4 mm 4 mps 684 mmHg 98%
    21:00 +21°C° 10.4 mm 5 mps 685 mmHg 98%
    22:00 +21°C° 5.1 mm 4 mps 685 mmHg 98%
    23:00 +21°C° 5.1 mm 4 mps 684 mmHg 98%
    Show more